• Processing (Info)

  • MPEC 2011-K34 : 2011 KQ12

    The following Minor Planet Electronic Circular may be linked-to from your own Web pages, but must not otherwise be redistributed electronically.

    A form allowing access to any MPEC is at the bottom of this page.


    Read MPEC 2011-K33 Read MPEC 2011-K35


    M.P.E.C. 2011-K34                                Issued 2011 May 27, 21:38 UT
    
         The Minor Planet Electronic Circulars contain information on unusual
             minor planets and routine data on comets.  They are published
       on behalf of Commission 20 of the International Astronomical Union by the
              Minor Planet Center, Smithsonian Astrophysical Observatory,
                              Cambridge, MA 02138, U.S.A.
    
                 Prepared using the Tamkin Foundation Computer Network
    
                                  MPC@CFA.HARVARD.EDU
                URL https://www.minorplanetcenter.net/    ISSN 1523-6714
    
                                       2011 KQ12
    
    Observations:
         K11K12Q* C2011 05 22.18944 08 39 23.22 +42 57 08.5          21.1 VrEK034G96
         K11K12Q  C2011 05 22.19462 08 39 24.40 +42 57 02.5          20.7 VrEK034G96
         K11K12Q  C2011 05 22.19981 08 39 25.63 +42 56 56.2          21.2 VrEK034G96
         K11K12Q  C2011 05 22.20500 08 39 26.78 +42 56 49.8          20.5 VrEK034G96
         K11K12Q  C2011 05 23.17061 08 43 12.61 +42 37 38.4          20.7 VrEK034G96
         K11K12Q  C2011 05 23.17735 08 43 14.08 +42 37 29.7          21.7 VrEK034G96
         K11K12Q  C2011 05 23.18401 08 43 15.67 +42 37 21.5          21.0 VrEK034G96
         K11K12Q  C2011 05 23.19075 08 43 17.25 +42 37 12.7          21.9 VrEK034G96
         K11K12Q KC2011 05 26.89778 08 57 48.75 +41 14 52.6          20.1 RoEK034J04
         K11K12Q KC2011 05 26.90107 08 57 49.56 +41 14 47.0          20.2 RoEK034J04
         K11K12Q KC2011 05 26.90435 08 57 50.31 +41 14 42.4          20.3 RoEK034J04
    
    Observer details:
    G96 Mt. Lemmon Survey.  Observer A. Boattini.  Measurers J. D. Ahern,
        E. C. Beshore, A. Boattini, G. J. Garradd, A. R. Gibbs, A. D. Grauer,
        R. E. Hill, R. A. Kowalski, S. M. Larson, R. H. McNaught.  1.5-m reflector
        + CCD.
    J04 ESA Optical Ground Station, Tenerife.  Observers M. Busch, R. Kresken.
        1.0-m f/4.4 reflector + CCD.
    
    Orbital elements:
    2011 KQ12                                           PHA, Earth MOID = 0.0437 AU
    Epoch 2011 Aug. 27.0 TT = JDT 2455800.5                 MPC
    M  32.05718              (2000.0)            P               Q
    n   0.40336754     Peri.  142.77237     -0.65511089     +0.68022147
    a   1.8141314      Node    83.67882     -0.74803737     -0.52280477
    e   0.5051225      Incl.   19.31979     -0.10615938     -0.51378393
    P   2.44           H   19.3           G   0.15           U   8
    Residuals in seconds of arc
    110522 G96  0.1+  0.2-    110523 G96  0.4+  0.1+    110526 J04  0.3-  0.4+
    110522 G96  0.1-  0.1+    110523 G96  0.6-  0.1-    110526 J04  0.2+  0.3-
    110522 G96  0.3+  0.1+    110523 G96  0.0   0.1+    110526 J04  0.1+  0.0
    110522 G96  0.3-  0.0     110523 G96  0.2+  0.1-
    
    Ephemeris:
    2011 KQ12                a,e,i = 1.81, 0.51, 19                  q = 0.8978
    Date    TT    R. A. (2000) Decl.     Delta      r     Elong.  Phase     V
    2011 04 27    07 08 11.1 +47 22 19   0.8272  1.0444    68.6    63.8    21.2
    ...
    2011 05 12    08 00 33.3 +45 32 20   0.7425  0.9639    64.6    71.2    21.1
    ...
    2011 05 20    08 30 54.7 +43 37 35   0.6855  0.9320    63.2    75.7    21.0
    ...
    2011 05 26    08 54 17.8 +41 36 08   0.6388  0.9145    62.5    79.2    20.9
    2011 05 27    08 58 13.6 +41 12 25   0.6307  0.9121    62.4    79.8    20.9
    2011 05 28    09 02 09.9 +40 47 37   0.6226  0.9099    62.3    80.4    20.9
    ...
    2011 06 03    09 25 53.9 +37 53 53   0.5731  0.9006    62.0    83.8    20.8
    ...
    2011 06 11    09 57 41.0 +32 43 21   0.5064  0.8983    62.2    87.9    20.7
    ...
    2011 06 26    10 58 04.6 +17 24 38   0.3942  0.9254    65.5    91.7    20.4
    
    A. U. Tomatic                (C) Copyright 2011 MPC           M.P.E.C. 2011-K34
    

    Read MPEC 2011-K33 Read MPEC 2011-K35


    MPEC number:

    Enter an MPEC number in one of the following forms:

    • 1997-B01 (the full form)
    • J97B01 (the packed version of the full form)
    • B01 (the abbreviated form)